This is the latest recevied weather packets stored in our database for station/object W0VI. If no packets are shown the sender has not sent any weather packets the latest 10 day(s).
| Time | Temp. | Humidity | Pressure | Rain* | Wind** | Luminosity | Snow |
|---|---|---|---|---|---|---|---|
| 1777867082 | 12.22° C | 53% | 1002.6 hPa | 0 mm | - | 0 W/m² | - |
| 1777866780 | 12.22° C | 54% | 1002.6 hPa | 0 mm | - | 0 W/m² | - |
| 1777866477 | 12.22° C | 57% | 1002.9 hPa | 0 mm | - | 0 W/m² | - |
| 1777866175 | 12.22° C | 57% | 1003 hPa | 0 mm | - | 0 W/m² | - |
| 1777865871 | 12.22° C | 55% | 1002.9 hPa | 0 mm | - | 0 W/m² | - |
| 1777865569 | 12.78° C | 55% | 1003.2 hPa | 0 mm | - | 0 W/m² | - |
| 1777865266 | 12.78° C | 56% | 1003.2 hPa | 0 mm | - | 0 W/m² | - |
| 1777864963 | 13.33° C | 53% | 1003.3 hPa | 0 mm | - | 0 W/m² | - |
| 1777864659 | 13.33° C | 53% | 1003.5 hPa | 0 mm | - | 0 W/m² | - |
| 1777864358 | 13.33° C | 52% | 1003.6 hPa | 0 mm | - | 0 W/m² | - |
| 1777864052 | 13.33° C | 49% | 1003.4 hPa | 0 mm | - | 0 W/m² | - |
| 1777863750 | 12.78° C | 49% | 1003.6 hPa | 0 mm | - | 0 W/m² | - |
| 1777863446 | 13.33° C | 48% | 1003.5 hPa | 0 mm | - | 0 W/m² | - |
| 1777863143 | 13.89° C | 45% | 1003.7 hPa | 0 mm | - | 0 W/m² | - |
| 1777862840 | 14.44° C | 44% | 1003.6 hPa | 0 mm | - | 0 W/m² | - |
| 1777862537 | 14.44° C | 44% | 1003.7 hPa | 0 mm | - | 0 W/m² | - |
| 1777862234 | 15° C | 44% | 1003.8 hPa | 0 mm | - | 0 W/m² | - |
| 1777861929 | 15° C | 41% | 1003.8 hPa | 0 mm | - | 0 W/m² | - |
| 1777861626 | 15.56° C | 39% | 1003.7 hPa | 0 mm | - | 0 W/m² | - |
| 1777861322 | 15.56° C | 38% | 1003.7 hPa | 0 mm | - | 0 W/m² | - |
| 1777861020 | 16.11° C | 39% | 1003.6 hPa | 0 mm | - | 0 W/m² | - |
| 1777860716 | 16.11° C | 39% | 1003.8 hPa | 0 mm | - | 0 W/m² | - |
| 1777860413 | 16.11° C | 38% | 1003.9 hPa | 0 mm | - | 0 W/m² | - |
| 1777860109 | 16.67° C | 37% | 1003.8 hPa | 0 mm | - | 0 W/m² | - |
| 1777859806 | 16.67° C | 36% | 1003.9 hPa | 0 mm | - | 0 W/m² | - |
* Rain latest hour (hover to see other rain measurements)
** Current wind speed in m/s (hover to see current wind gust speed)